Regional Weather Roundup
Issued by NWS

Home | Current Version | Previous Version | Text Only | Print | Product List | Glossary Off
Versions: 1 2 3 4 5 6 7 8 9 10 11 12 13 14 15 16 17 18 19 20 21 22 23 24 25 26 27 28 29 30 31 32 33 34 35 36 37 38 39 40 41 42 43 44 45 46 47 48 49 50

000
ASUS43 KLMK 221610
RWRKY
KENTUCKY REGIONAL WEATHER ROUNDUP
NATIONAL WEATHER SERVICE LOUISVILLE KY
1200 PM EDT FRI MAY 22 2015

NOTE "FAIR" INDICATES FEW OR NO CLOUDS BELOW 12,000 FEET
WITH NO SIGNIFICANT WEATHER AND/OR OBSTRUCTIONS TO VISIBILITY.

KYZ001>023-026-027-061>063-070>075-221700-
WESTERN AND SOUTH CENTRAL KENTUCKY

CITY           SKY/WX    TMP DP  RH WIND       PRES   REMARKS
PADUCAH        SUNNY     69  44  40 CALM      30.28F
HENDERSON      SUNNY     66  48  52 SW10      30.27F
OWENSBORO      SUNNY     69  51  52 SW8       30.29F
HOPKINSVILLE   SUNNY     64  48  56 VRB2      30.30F
BOWLING GREEN  SUNNY     65  45  48 E3        30.31F
GLASGOW        SUNNY     63  45  50 CALM      30.31F
$$

KYZ024-025-028>034-038-045-046-053-221700-
NORTH CENTRAL KENTUCKY

CITY           SKY/WX    TMP DP  RH WIND       PRES   REMARKS
LOUISVILLE/SDF MOSUNNY   68  46  45 S8        30.26F
LOUISVILLE/LOU SUNNY     68  46  45 SW8       30.27S
FORT KNOX      SUNNY     68  47  46 SW8       30.26F
$$

KYZ035>037-039>044-047>052-055>060-089>105-221700-
NORTHEAST KENTUCKY

CITY           SKY/WX    TMP DP  RH WIND       PRES   REMARKS
LEXINGTON      SUNNY     64  46  52 W9        30.28R
COVINGTON      SUNNY     68  49  50 W10       30.23
FRANKFORT      SUNNY     65  45  48 W7        30.27R
$$

KYZ054-064>069-076>088-106>120-221700-
SOUTHEAST KENTUCKY

CITY           SKY/WX    TMP DP  RH WIND       PRES   REMARKS
JACKSON        SUNNY     61  49  64 VRB5      30.29S
LONDON         MOSUNNY   62  41  46 VRB5      30.31R
SOMERSET       SUNNY     61  45  55 S3        30.33S
MIDDLESBORO    SUNNY     62  45  54 E6        30.32S
MONTICELLO     SUNNY     65  47  52 NW6       30.34S
$$




USA.gov is the U.S. government's official web portal to all federal, state and local government web resources and services.